Voltar ao catálogo

CZ-6A DEB

AtivoPO
NORAD 55212·DEBRIS·🇨🇳 China

Lançado Nov 11, 2022 de Taiyuan Satellite Launch Center

Loading…

Próximas Passagens (próximas 24 horas)

TLE

AtualizadoSource: Space-Track

Época: Sep 14, 2026, 05:37 UTC

1 55212U 22151WD  26257.23439545  .00098653  00000-0  40697-2 0  9992
2 55212  98.6358 355.6859 0024605 278.9470  80.8979 15.23358717199485

Acompanhe CZ-6A DEB em tempo real com AllMySat

Download on the App Store